Aérodrome :
LOGIN :

S'inscrire | Disclaimer

   EN    FR    IT 

 










Légende :    VFR   VFR Marginal   IFR   IFR Intensif   IFR Très Intensif
Visi : 
Plafond : 
>= 8 km
>= 3000ft
5 à 8 km
1000 à 3000 ft
1500m à 5 km
500 à 1000 ft
800 à 1500m
200 à 500 ft
< 800m
< 200 ft
Symboles :   Orages  Brouillard  Fortes neiges  Fortes précipitations  Vent > 20 kt
SIGMETs :   Divers  Orages  Givrage  Turbulence  Onde Orograph.  Cendres Volcan.







- Altitude de l'aérodrome : 302 ft
- Voir les cartes d'approche


LFPM - Melun Villaroche

DERNIER METAR :
  • 162200Z AUTO 21005KT 9999 BKN026 BKN032 BKN041 02/00 Q1022

METARs EXPIRÉS :
  • 162130Z AUTO 25005KT 9000 RA BKN027/// BKN037/// BKN048/// ///TCU 02/01 Q1022
  • 162100Z AUTO 25005KT 9999 BKN042/// OVC088/// ///TCU 01/00 Q1022
  • 162030Z AUTO 25006KT 9999 BKN040 BKN052 BKN076 01/M00 Q1022
  • 162000Z AUTO 22005KT CAVOK M01/M02 Q1022
  • 161930Z AUTO 21005KT CAVOK M00/M02 Q1022

Prévision TAF périmée.
ATIS : +33 1 64 14 28 44
Pas de NOTAMs connus pour ce terrain.



MET'MAP, la Météo Aéronautique d'un coup d'oeil ! - Copyright ORBIFLY Décembre 2007 - Disclaimer

ORBIFLY MET'MAP TEAM :

Programmation & Développement : Alexandra Zaïnal
Conception & Développement : Baudouin d'Aumeries
Co-Programmation & Développement : Marc-Olivier Méhu
Soutien technique & logistique : Manuel Goepfert

Contact : metmap@orbifly.com




SOURCES & CREDITS :

   NOAA